GW1460 Weather Reports


time (UTC)temp
C
wind
direction
speed
KPH
gust
KPH
rain 1hr
cm
rain 24hr
cm
rain mn
cm
humidity
%
barometer
mb
20260507220926 30 92 1.6 4.8 0.00 0.00 0.00 68 1016.9
20260507220424 30 168 3.2 4.8 0.00 0.00 0.00 67 1017.0
20260507215921 30 150 0.0 8.0 0.00 0.00 0.00 68 1017.1
20260507215417 29 138 3.2 9.7 0.00 0.00 0.00 68 1017.1
20260507214915 30 84 6.4 8.0 0.00 0.00 0.00 68 1017.0
20260507214413 30 133 1.6 9.7 0.00 0.00 0.00 67 1017.1
20260507213908 30 79 8.0 12.9 0.00 0.00 0.00 68 1017.0
20260507213405 30 81 11.3 14.5 0.00 0.00 0.00 68 1017.0
20260507212902 30 58 4.8 9.7 0.00 0.00 0.00 67 1017.0
20260507212357 31 50 3.2 9.7 0.00 0.00 0.00 65 1017.0
20260507211854 31 55 4.8 9.7 0.00 0.00 0.00 64 1016.9
20260507211351 31 147 1.6 9.7 0.00 0.00 0.00 63 1017.0
20260507210848 31 70 4.8 12.9 0.00 0.00 0.00 63 1016.9
20260507210345 31 150 4.8 9.7 0.00 0.00 0.00 63 1016.9
20260507205841 31 37 4.8 8.0 0.00 0.00 0.00 62 1017.0
20260507205338 31 62 4.8 9.7 0.00 0.00 0.00 62 1016.7
20260507204834 31 143 0.0 3.2 0.00 0.00 0.00 62 1016.7
20260507204331 31 87 6.4 11.3 0.00 0.00 0.00 62 1016.7
20260507203829 32 150 3.2 8.0 0.00 0.00 0.00 62 1016.7
20260507203327 32 174 4.8 9.7 0.00 0.00 0.00 62 1016.8
20260507202823 32 88 4.8 12.9 0.00 0.00 0.00 62 1016.9
20260507202319 32 185 4.8 11.3 0.00 0.00 0.00 61 1016.9
20260507201815 32 120 1.6 4.8 0.00 0.00 0.00 61 1016.8
20260507201311 32 158 1.6 3.2 0.00 0.00 0.00 60 1016.9
20260507200808 32 162 3.2 9.7 0.00 0.00 0.00 61 1016.9
20260507200303 32 11 1.6 4.8 0.00 0.00 0.00 61 1017.1
20260507195759 32 84 4.8 9.7 0.00 0.00 0.00 59 1017.2
20260507195257 32 84 4.8 9.7 0.00 0.00 0.00 59 1017.1
20260507194754 32 162 4.8 8.0 0.00 0.00 0.00 61 1017.2
20260507194250 32 162 4.8 8.0 0.00 0.00 0.00 61 1017.2
20260507193747 32 149 4.8 9.7 0.00 0.00 0.00 61 1017.2
20260507193244 33 137 1.6 3.2 0.00 0.00 0.00 60 1017.2
20260507192740 33 163 4.8 12.9 0.00 0.00 0.00 62 1017.4
20260507192236 33 102 1.6 3.2 0.00 0.00 0.00 59 1017.2
20260507191733 33 102 1.6 3.2 0.00 0.00 0.00 59 1017.4
20260507191230 33 102 1.6 3.2 0.00 0.00 0.00 59 1017.6
20260507190726 33 102 1.6 3.2 0.00 0.00 0.00 59 1017.6
20260507190225 33 102 1.6 3.2 0.00 0.00 0.00 59 1017.8
20260507185723 33 161 3.2 4.8 0.00 0.00 0.00 58 1017.8
20260507185220 34 160 1.6 1.6 0.00 0.00 0.00 57 1018.0
20260507184718 33 217 3.2 8.0 0.00 0.00 0.00 59 1018.1
20260507184215 33 80 3.2 8.0 0.00 0.00 0.00 60 1018.0
20260507183711 35 155 0.0 0.0 0.00 0.00 0.00 53 1018.2
20260507183208 33 151 3.2 4.8 0.00 0.00 0.00 55 1018.3
20260507182706 35 91 1.6 3.2 0.00 0.00 0.00 53 1018.3
20260507182201 35 153 0.0 1.6 0.00 0.00 0.00 46 1018.6
20260507181658 34 293 0.0 0.0 0.00 0.00 0.00 46 1018.5
20260507181154 35 237 3.2 3.2 0.00 0.00 0.00 47 1018.5
20260507180650 34 127 0.0 0.0 0.00 0.00 0.00 48 1018.4
20260507180148 33 145 0.0 0.0 0.00 0.00 0.00 51 1018.5
20260507175643 33 145 0.0 0.0 0.00 0.00 0.00 51 1018.5
20260507175141 33 145 0.0 0.0 0.00 0.00 0.00 51 1018.5
20260507174638 33 170 3.2 3.2 0.00 0.00 0.00 50 1018.5
20260507174136 33 170 3.2 3.2 0.00 0.00 0.00 50 1018.5
20260507173633 33 170 3.2 3.2 0.00 0.00 0.00 50 1018.7
20260507173130 33 170 3.2 3.2 0.00 0.00 0.00 50 1018.8
20260507172626 33 170 3.2 3.2 0.00 0.00 0.00 50 1018.7
20260507172124 33 170 3.2 8.0 0.00 0.00 0.00 50 1018.9
20260507171618 33 166 1.6 1.6 0.00 0.00 0.00 51 1018.8
20260507171116 33 170 1.6 1.6 0.00 0.00 0.00 53 1019.0
20260507170613 32 187 1.6 3.2 0.00 0.00 0.00 52 1019.1
20260507170110 33 169 0.0 4.8 0.00 0.00 0.00 52 1019.3
20260507165605 32 241 0.0 0.0 0.00 0.00 0.00 51 1019.3
20260507165102 32 165 0.0 0.0 0.00 0.00 0.00 52 1019.2
20260507164558 32 170 0.0 0.0 0.00 0.00 0.00 52 1019.3
20260507164055 33 129 0.0 0.0 0.00 0.00 0.00 51 1019.5
20260507163552 32 110 0.0 3.2 0.00 0.00 0.00 52 1019.5
20260507163045 32 160 0.0 1.6 0.00 0.00 0.00 51 1019.7
20260507162544 32 150 0.0 0.0 0.00 0.00 0.00 52 1019.6
20260507162042 32 158 0.0 0.0 0.00 0.00 0.00 53 1019.7
20260507161539 32 201 1.6 3.2 0.00 0.00 0.00 53 1019.9
20260507161035 32 143 0.0 0.0 0.00 0.00 0.00 52 1019.8
20260507160531 31 210 3.2 8.0 0.00 0.00 0.00 55 1019.8
20260507160027 32 177 0.0 0.0 0.00 0.00 0.00 54 1019.9
20260507155522 31 152 3.2 8.0 0.00 0.00 0.00 55 1020.2
20260507155020 32 184 0.0 3.2 0.00 0.00 0.00 56 1020.0
20260507154517 32 136 0.0 0.0 0.00 0.00 0.00 55 1019.9
20260507154014 31 169 0.0 1.6 0.00 0.00 0.00 56 1020.0
20260507153511 31 159 0.0 0.0 0.00 0.00 0.00 56 1020.1
20260507153007 31 232 0.0 0.0 0.00 0.00 0.00 56 1020.2
20260507152502 31 127 3.2 9.7 0.00 0.00 0.00 58 1020.2
20260507151959 31 172 0.0 0.0 0.00 0.00 0.00 57 1020.2
20260507151455 30 131 0.0 0.0 0.00 0.00 0.00 58 1020.2
20260507150953 30 158 0.0 3.2 0.00 0.00 0.00 57 1020.3
20260507150449 30 182 0.0 1.6 0.00 0.00 0.00 59 1020.2
20260507145945 30 163 3.2 3.2 0.00 0.00 0.00 59 1020.4
20260507145441 30 232 3.2 4.8 0.00 0.00 0.00 57 1020.3
20260507144938 30 260 6.4 8.0 0.00 0.00 0.00 58 1020.1
20260507144435 30 145 1.6 4.8 0.00 0.00 0.00 61 1020.3
20260507143932 30 236 4.8 4.8 0.00 0.00 0.00 61 1020.2
20260507143430 30 236 4.8 4.8 0.00 0.00 0.00 61 1020.2
20260507142926 29 160 0.0 0.0 0.00 0.00 0.00 65 1020.4
20260507142422 29 160 0.0 0.0 0.00 0.00 0.00 65 1020.4
20260507141920 30 227 4.8 4.8 0.00 0.00 0.00 64 1020.5
20260507141415 30 122 0.0 4.8 0.00 0.00 0.00 66 1020.5
20260507140912 28 170 1.6 3.2 0.00 0.00 0.00 68 1020.4
20260507140409 28 172 1.6 3.2 0.00 0.00 0.00 69 1020.4
20260507135907 28 118 0.0 0.0 0.00 0.00 0.00 68 1020.4
20260507135403 28 160 1.6 3.2 0.00 0.00 0.00 69 1020.3
20260507134901 28 241 4.8 8.0 0.00 0.00 0.00 69 1020.4
20260507134357 28 253 1.6 3.2 0.00 0.00 0.00 70 1020.4
20260507133853 28 244 0.0 4.8 0.00 0.00 0.00 70 1020.3
20260507133349 28 153 0.0 0.0 0.00 0.00 0.00 70 1020.4
20260507132848 27 228 1.6 1.6 0.00 0.00 0.00 70 1020.6
20260507132343 27 228 1.6 1.6 0.00 0.00 0.00 70 1020.2
20260507131841 27 228 1.6 1.6 0.00 0.00 0.00 70 1020.3
20260507131337 27 161 0.0 0.0 0.00 0.00 0.00 71 1020.3
20260507130834 27 151 1.6 1.6 0.00 0.00 0.00 72 1020.4
20260507130331 27 146 4.8 4.8 0.00 0.00 0.00 72 1020.4
20260507125831 26 223 4.8 8.0 0.00 0.00 0.00 73 1020.2
20260507125327 26 172 0.0 0.0 0.00 0.00 0.00 75 1020.5
20260507124825 26 171 1.6 1.6 0.00 0.00 0.00 75 1020.3
20260507124321 26 171 1.6 3.2 0.00 0.00 0.00 76 1020.4
20260507123819 26 170 1.6 1.6 0.00 0.00 0.00 77 1020.4
20260507123316 25 171 0.0 3.2 0.00 0.00 0.00 77 1020.6
20260507122812 25 171 0.0 0.0 0.00 0.00 0.00 78 1020.4
20260507122308 25 172 0.0 0.0 0.00 0.00 0.00 78 1020.4
20260507121804 25 171 0.0 0.0 0.00 0.00 0.00 79 1020.5
20260507121300 24 171 0.0 0.0 0.00 0.00 0.00 80 1020.4
20260507120756 23 156 0.0 0.0 0.00 0.00 0.00 82 1020.3
20260507120253 23 154 0.0 0.0 0.00 0.00 0.00 82 1020.2
20260507115749 23 153 0.0 0.0 0.00 0.00 0.00 83 1020.1
20260507115245 23 151 0.0 0.0 0.00 0.00 0.00 85 1020.3
20260507114741 22 150 0.0 0.0 0.00 0.00 0.00 89 1020.3
20260507114238 22 150 0.0 0.0 0.00 0.00 0.00 89 1020.2
20260507113736 21 154 0.0 0.0 0.00 0.00 0.00 89 1020.1
20260507113232 21 155 0.0 0.0 0.00 0.00 0.00 90 1020.2
20260507112731 21 161 0.0 0.0 0.00 0.00 0.00 90 1020.0
20260507112227 20 172 0.0 0.0 0.00 0.00 0.00 90 1020.0
20260507111725 20 155 0.0 0.0 0.00 0.00 0.00 90 1019.7
20260507111221 20 155 0.0 0.0 0.00 0.00 0.00 90 1019.6
20260507110717 20 155 0.0 0.0 0.00 0.00 0.00 90 1019.6
20260507110214 20 155 0.0 0.0 0.00 0.00 0.00 90 1019.6
20260507105711 20 155 0.0 0.0 0.00 0.00 0.00 90 1019.6
20260507105207 20 155 0.0 0.0 0.00 0.00 0.00 90 1019.1
20260507104704 20 160 0.0 0.0 0.00 0.00 0.00 90 1019.1
20260507104201 20 158 0.0 0.0 0.00 0.00 0.00 90 1019.2
20260507103656 20 156 0.0 0.0 0.00 0.00 0.00 90 1018.9
20260507103153 20 159 0.0 0.0 0.00 0.00 0.00 90 1018.9
20260507102650 20 159 0.0 0.0 0.00 0.00 0.00 90 1019.0
20260507102146 20 159 0.0 0.0 0.00 0.00 0.00 90 1018.7
20260507101642 20 157 0.0 0.0 0.00 0.00 0.00 90 1019.0
20260507101138 20 157 0.0 0.0 0.00 0.00 0.00 90 1018.6
20260507100635 20 157 0.0 0.0 0.00 0.00 0.00 90 1018.6
20260507100134 20 155 0.0 0.0 0.00 0.00 0.00 90 1018.5
20260507095631 20 155 0.0 0.0 0.00 0.00 0.00 90 1018.4
20260507095127 20 155 0.0 0.0 0.00 0.00 0.00 90 1018.4
20260507094624 20 155 0.0 0.0 0.00 0.00 0.00 90 1018.3
20260507094121 20 152 0.0 0.0 0.00 0.00 0.00 89 1018.1
20260507093618 20 152 0.0 0.0 0.00 0.00 0.00 89 1018.2
20260507093117 20 152 0.0 0.0 0.00 0.00 0.00 89 1018.2
20260507092613 20 152 0.0 0.0 0.00 0.00 0.00 89 1018.2
20260507092109 20 152 0.0 0.0 0.00 0.00 0.00 89 1018.2
20260507091606 20 149 0.0 0.0 0.00 0.00 0.00 89 1018.3
20260507091102 20 156 0.0 0.0 0.00 0.00 0.00 89 1018.4
20260507090558 20 156 0.0 0.0 0.00 0.00 0.00 89 1018.4
20260507090055 20 157 0.0 0.0 0.00 0.00 0.00 89 1018.4
20260507085552 -17 0.0 0.0 0.00 0.00 0.00 1018.3
20260507085049 -17 0.0 0.0 0.00 0.00 0.00 1018.3
20260507084546 -17 0.0 0.0 0.00 0.00 0.00 1018.4
20260507084043 -17 0.0 0.0 0.00 0.00 0.00 1018.2
20260507083539 -17 0.0 0.0 0.00 0.00 0.00 1018.3
20260507083036 -17 0.0 0.0 0.00 0.00 0.00 1018.3
20260507082532 -17 0.0 0.0 0.00 0.00 0.00 1018.2
20260507082029 -17 0.0 0.0 0.00 0.00 0.00 1018.2
20260507081525 -17 0.0 0.0 0.00 0.00 0.00 1018.2
20260507081022 -17 0.0 0.0 0.00 0.00 0.00 1018.2
20260507080518 -17 0.0 0.0 0.00 0.00 0.00 1018.3
20260507080015 -17 0.0 0.0 0.00 0.00 0.00 1018.4
20260507075510 -17 0.0 0.0 0.00 0.00 0.00 1018.1
20260507075007 -17 0.0 0.0 0.00 0.00 0.00 1018.3
20260507074503 -17 0.0 0.0 0.00 0.00 0.00 1018.4
20260507074002 21 153 0.0 0.0 0.00 0.00 0.00 85 1018.2
20260507073457 21 153 0.0 0.0 0.00 0.00 0.00 85 1018.2
20260507072954 21 153 0.0 0.0 0.00 0.00 0.00 85 1018.4
20260507072452 21 153 0.0 0.0 0.00 0.00 0.00 85 1018.4
20260507071949 21 153 0.0 0.0 0.00 0.00 0.00 85 1018.4
20260507071446 21 153 0.0 0.0 0.00 0.00 0.00 85 1018.4
20260507070942 21 153 0.0 0.0 0.00 0.00 0.00 85 1018.5
20260507070440 21 153 0.0 0.0 0.00 0.00 0.00 85 1018.4
20260507065936 21 153 0.0 0.0 0.00 0.00 0.00 85 1018.5
20260507065433 21 153 0.0 0.0 0.00 0.00 0.00 85 1018.9
20260507064931 21 153 0.0 0.0 0.00 0.00 0.00 85 1018.9
20260507064429 21 153 0.0 0.0 0.00 0.00 0.00 85 1019.0
20260507063926 21 152 0.0 0.0 0.00 0.00 0.00 85 1018.9
20260507063423 -17 0.0 0.0 0.00 0.00 0.00 1018.9
20260507062920 -17 0.0 0.0 0.00 0.00 0.00 1019.1
20260507062417 -17 0.0 0.0 0.00 0.00 0.00 1019.5
20260507061914 -17 0.0 0.0 0.00 0.00 0.00 1019.4
20260507061412 -17 0.0 0.0 0.00 0.00 0.00 1019.3
20260507060911 -17 0.0 0.0 0.00 0.00 0.00 1019.3
20260507060407 -17 0.0 0.0 0.00 0.00 0.00 1019.5
20260507055904 -17 0.0 0.0 0.00 0.00 0.00 1019.4
20260507055359 -17 0.0 0.0 0.00 0.00 0.00 1019.2
20260507054856 -17 0.0 0.0 0.00 0.00 0.00 1019.5
20260507054352 -17 0.0 0.0 0.00 0.00 0.00 1019.4
20260507053849 -17 0.0 0.0 0.00 0.00 0.00 1019.6
20260507053347 -17 0.0 0.0 0.00 0.00 0.00 1019.3
20260507052846 -17 0.0 0.0 0.00 0.00 0.00 1019.6
20260507052342 -17 0.0 0.0 0.00 0.00 0.00 1019.7
20260507051839 -17 0.0 0.0 0.00 0.00 0.00 1019.9
20260507051337 -17 0.0 0.0 0.00 0.00 0.00 1019.7
20260507050834 23 147 0.0 0.0 0.00 0.00 0.00 77 1019.8
20260507050330 23 147 0.0 0.0 0.00 0.00 0.00 77 1019.8
20260507045827 23 147 0.0 0.0 0.00 0.00 0.00 77 1019.8
20260507045324 23 147 0.0 0.0 0.00 0.00 0.00 77 1019.9
20260507044821 23 147 0.0 0.0 0.00 0.00 0.00 77 1019.8
20260507044318 23 147 0.0 0.0 0.00 0.00 0.00 77 1019.9
20260507043813 23 147 0.0 0.0 0.00 0.00 0.00 77 1020.0
20260507043310 23 147 0.0 0.0 0.00 0.00 0.00 77 1019.8
20260507042806 23 147 0.0 0.0 0.00 0.00 0.00 77 1019.8
20260507042306 23 147 0.0 0.0 0.00 0.00 0.00 77 1019.8
20260507041759 23 147 0.0 0.0 0.00 0.00 0.00 77 1019.8
20260507041255 23 147 0.0 0.0 0.00 0.00 0.00 77 1019.9
20260507040753 23 145 0.0 0.0 0.00 0.00 0.00 77 1019.7
20260507040249 23 145 0.0 0.0 0.00 0.00 0.00 77 1019.7
20260507035745 23 145 0.0 0.0 0.00 0.00 0.00 77 1019.7
20260507035240 23 145 0.0 0.0 0.00 0.00 0.00 77 1019.8
20260507034738 23 145 0.0 0.0 0.00 0.00 0.00 77 1019.8
20260507034235 23 145 0.0 0.0 0.00 0.00 0.00 77 1019.7
20260507033734 23 145 0.0 0.0 0.00 0.00 0.00 77 1019.8
20260507033231 23 145 0.0 0.0 0.00 0.00 0.00 77 1019.9
20260507032728 23 145 0.0 0.0 0.00 0.00 0.00 77 1019.9
20260507032224 -17 0.0 0.0 0.00 0.00 0.00 1020.2
20260507031721 -17 0.0 0.0 0.00 0.00 0.00 1020.1
20260507031217 -17 0.0 0.0 0.00 0.00 0.00 1019.9
20260507030714 -17 0.0 0.0 0.00 0.00 0.00 1019.9
20260507030212 23 143 0.0 1.6 0.00 0.00 0.00 78 1020.2
20260507025709 23 143 0.0 1.6 0.00 0.00 0.00 78 1020.3
20260507025206 23 143 0.0 1.6 0.00 0.00 0.00 78 1020.2
20260507024704 23 143 0.0 1.6 0.00 0.00 0.00 78 1020.3
20260507024201 23 143 0.0 1.6 0.00 0.00 0.00 78 1020.0
20260507023656 23 143 0.0 1.6 0.00 0.00 0.00 78 1020.2
20260507023154 23 143 0.0 1.6 0.00 0.00 0.00 78 1020.3
20260507022650 23 143 0.0 1.6 0.00 0.00 0.00 78 1020.1
20260507022146 23 143 0.0 1.6 0.00 0.00 0.00 78 1020.1
20260507021643 23 143 0.0 1.6 0.00 0.00 0.00 78 1020.1
20260507021138 23 143 0.0 1.6 0.00 0.00 0.00 78 1020.0
20260507020637 24 116 0.0 0.0 0.00 0.00 0.00 78 1020.1
20260507020132 24 116 0.0 0.0 0.00 0.00 0.00 78 1020.3
20260507015631 24 116 0.0 0.0 0.00 0.00 0.00 78 1020.0
20260507015128 24 116 0.0 0.0 0.00 0.00 0.00 78 1019.9
20260507014624 25 150 0.0 0.0 0.00 0.00 0.00 77 1020.0
20260507014120 25 150 0.0 0.0 0.00 0.00 0.00 77 1019.8
20260507013618 25 150 0.0 0.0 0.00 0.00 0.00 77 1019.8
20260507013114 25 150 0.0 0.0 0.00 0.00 0.00 77 1019.9
20260507012612 25 150 0.0 0.0 0.00 0.00 0.00 77 1020.0
20260507012107 25 150 0.0 0.0 0.00 0.00 0.00 76 1020.0
20260507011606 25 149 0.0 0.0 0.00 0.00 0.00 76 1020.0
20260507011101 25 149 0.0 0.0 0.00 0.00 0.00 76 1020.0
20260507010556 25 150 0.0 0.0 0.00 0.00 0.00 75 1020.0
20260507010052 25 154 0.0 0.0 0.00 0.00 0.00 75 1019.8
20260507005550 25 135 0.0 0.0 0.00 0.00 0.00 75 1020.0
20260507005046 25 88 1.6 4.8 0.00 0.00 0.00 75 1019.8
20260507004543 25 127 3.2 3.2 0.00 0.00 0.00 75 1019.8
20260507004041 25 127 1.6 3.2 0.00 0.00 0.00 75 1019.8
20260507003537 25 126 0.0 1.6 0.00 0.00 0.00 75 1019.7
20260507003032 25 87 1.6 3.2 0.00 0.00 0.00 75 1019.9
20260507002529 25 128 0.0 1.6 0.00 0.00 0.00 74 1019.7
20260507002024 25 94 1.6 3.2 0.00 0.00 0.00 74 1019.6
20260507001521 25 115 3.2 3.2 0.00 0.00 0.00 74 1019.7
20260507001019 26 94 3.2 3.2 0.00 0.00 0.00 73 1019.7
20260507000514 26 71 3.2 3.2 0.00 0.00 0.00 72 1019.6
20260507000010 26 132 1.6 3.2 0.00 0.00 0.00 72 1019.6
20260506235508 26 82 3.2 3.2 0.00 0.00 0.00 72 1019.7
20260506235003 26 76 3.2 4.8 0.00 0.00 0.00 71 1019.6
20260506234501 26 75 4.8 4.8 0.00 0.00 0.00 70 1019.8
20260506233958 26 114 1.6 3.2 0.00 0.00 0.00 70 1019.5
20260506233454 26 125 1.6 4.8 0.00 0.00 0.00 69 1019.9
20260506232951 26 56 3.2 4.8 0.00 0.00 0.00 69 1019.5
20260506232448 26 97 4.8 8.0 0.00 0.00 0.00 68 1019.6
20260506231943 27 86 8.0 8.0 0.00 0.00 0.00 67 1019.8
20260506231441 27 86 4.8 4.8 0.00 0.00 0.00 67 1019.7
20260506230938 27 130 3.2 9.7 0.00 0.00 0.00 67 1019.8
20260506230434 27 41 4.8 8.0 0.00 0.00 0.00 67 1019.6
20260506225931 27 104 4.8 4.8 0.00 0.00 0.00 66 1019.7
20260506225429 27 71 3.2 8.0 0.00 0.00 0.00 65 1019.7
20260506224925 27 72 3.2 3.2 0.00 0.00 0.00 67 1019.6
20260506224423 28 60 3.2 4.8 0.00 0.00 0.00 65 1019.5
20260506223919 28 44 3.2 3.2 0.00 0.00 0.00 65 1019.5
20260506223414 28 87 6.4 8.0 0.00 0.00 0.00 64 1019.5
20260506222912 28 109 3.2 4.8 0.00 0.00 0.00 65 1019.5
20260506222409 28 143 4.8 8.0 0.00 0.00 0.00 62 1019.6
20260506221906 28 108 1.6 3.2 0.00 0.00 0.00 64 1019.4
20260506221403 28 87 8.0 11.3 0.00 0.00 0.00 62 1019.4